Regional Weather Roundup
Issued by NWS

Home | Current Version | Previous Version | Text Only | Print | Product List | Glossary On
Versions: 1 2 3 4 5 6 7 8 9 10 11 12 13 14 15 16 17 18 19 20 21 22 23 24 25 26 27
000
ASCA42 TJSJ 300310
RWRPR
PUERTO RICO/U.S. VIRGIN ISLANDS HOURLY WEATHER ROUNDUP
NATIONAL WEATHER SERVICE SAN JUAN PR
1100 PM AST SUN MAY 29 2016

PRZ001-004-300400-
PUERTO RICO

CITY           SKY/WX    TMP DP  RH WIND       PRES   REMARKS
SAN JUAN LMM   TSTM      75  75 100 CALM      30.04F
PONCE          PTCLDY    79  73  83 CALM      30.01
AGUADILLA      CLEAR     73  72  94 SE5       30.04S
CEIBA          PTCLDY    75  75 100 SW5       30.06S
$$

PRZ006-007-300400-
U.S. VIRGIN ISLANDS

CITY           SKY/WX    TMP DP  RH WIND       PRES   REMARKS
CHARLOTTE AMA  CLEAR     82  73  74 E7        30.03S
CHRISTIANSTED  PTCLDY    79  75  89 N5        30.03S
$$

HOURLY WEATHER ROUNDUP FOR THE NEWS MEDIA

CITY           SKY/WX    TMP DP  RH WIND       PRES   REMARKS
ORLANDO        CLOUDY    75  71  87 SE5       30.05S
NEW YORK       FOG       66  64  93 S7        30.08F VSB 3/4
NEWARK         LGT RAIN  78  68  71 S8        30.05S
CHICAGO        PTCLDY    70  58  65 W6        29.99R
HARTFORD       CLOUDY    58  55  90 NE5       30.13F FOG
BOSTON         CLOUDY    53  52  96 E6        30.16F FOG
DALLAS         CLOUDY    76  65  68 SE18      30.02R THUNDER
PHILADELPHIA   LGT RAIN  72  69  90 S6        30.08S FOG
LOS ANGELES    PTCLDY    61  53  75 W13       29.99R
WASHINGTON DC  CLOUDY    69  66  90 CALM      30.07F



USA.gov is the U.S. government's official web portal to all federal, state and local government web resources and services.